KA1WBH Weather Reports


Display with metric or nautical units.
time (UTC)temp
F
wind
direction
speed
MPH
gust
MPH
rain 1hr
in
rain 24hr
in
rain mn
in
humidity
%
barometer
mb
20180217233147 35 116 0.0 1.0 0.00 0.00 0.00 78 1026.0
20180217232147 35 116 1.0 1.0 0.00 0.00 0.00 78 1026.4
20180217231148 35 116 0.0 4.0 0.00 0.00 0.00 78 1026.3
20180217230147 35 129 0.0 4.0 0.00 0.00 0.00 78 1026.1
20180217225147 35 150 0.0 5.0 0.00 0.00 0.00 77 1026.5
20180217224148 34 125 1.0 3.0 0.00 0.00 0.00 77 1026.2
20180217223147 34 177 0.0 6.0 0.00 0.00 0.00 76 1026.0
20180217222147 34 148 1.0 9.0 0.00 0.00 0.00 75 1025.9
20180217221147 35 152 3.0 8.0 0.00 0.00 0.00 75 1025.8
20180217220147 35 183 1.0 8.0 0.00 0.00 0.00 74 1026.6
20180217215147 35 241 2.0 9.0 0.00 0.00 0.00 74 1027.0
20180217214147 35 155 2.0 6.0 0.00 0.01 0.00 74 1027.0
20180217213149 34 160 0.0 4.0 0.00 0.01 0.00 71 1027.7
20180217212147 34 149 0.0 5.0 0.00 0.01 0.00 69 1028.0
20180217211147 34 146 4.0 5.0 0.00 0.01 0.00 70 1028.2
20180217210147 34 169 0.0 7.0 0.00 0.01 0.00 68 1028.3
20180217205147 35 123 2.0 7.0 0.00 0.01 0.00 67 1028.0
20180217204147 35 127 0.0 9.0 0.00 0.01 0.00 65 1027.7
20180217203147 35 153 3.0 7.0 0.00 0.01 0.00 64 1027.6
20180217202147 35 149 1.0 8.0 0.00 0.01 0.00 65 1027.6
20180217201148 35 127 1.0 7.0 0.00 0.01 0.00 64 1027.3
20180217200147 35 113 0.0 7.0 0.00 0.01 0.00 64 1027.7
20180217195147 35 98 4.0 9.0 0.00 0.01 0.00 63 1027.1
20180217194147 35 116 9.0 11.0 0.00 0.01 0.00 61 1026.9
20180217193147 35 108 6.0 10.0 0.00 0.01 0.00 61 1026.4
20180217192148 36 85 4.0 9.0 0.00 0.01 0.00 58 1027.4
20180217191147 36 100 3.0 10.0 0.00 0.01 0.00 56 1027.4
20180217190147 35 131 5.0 11.0 0.00 0.01 0.00 56 1027.5
20180217185147 36 112 3.0 7.0 0.00 0.01 0.00 55 1027.8
20180217184147 36 102 0.0 6.0 0.00 0.01 0.00 55 1027.6
20180217183147 35 131 4.0 7.0 0.00 0.01 0.00 53 1027.5
20180217182147 36 111 0.0 6.0 0.00 0.01 0.00 50 1027.6
20180217181147 35 144 0.0 6.0 0.00 0.01 0.00 49 1028.3
20180217180147 35 119 0.0 6.0 0.00 0.01 0.00 51 1028.1
20180217175147 35 89 1.0 7.0 0.00 0.01 0.00 48 1027.9
20180217174147 35 89 2.0 6.0 0.00 0.01 0.00 47 1028.0
20180217173147 34 68 1.0 8.0 0.00 0.01 0.00 48 1028.1
20180217172147 35 82 7.0 7.0 0.00 0.01 0.00 45 1028.6
20180217171147 35 80 5.0 6.0 0.00 0.01 0.00 45 1029.0
20180217170147 35 117 4.0 7.0 0.00 0.01 0.00 45 1029.3
20180217165147 35 104 1.0 8.0 0.00 0.01 0.00 45 1029.3
20180217164148 34 71 0.0 9.0 0.00 0.01 0.00 44 1029.5
20180217163147 34 94 7.0 7.0 0.00 0.01 0.00 44 1029.4
20180217162147 34 102 4.0 7.0 0.00 0.01 0.00 44 1029.7
20180217161147 34 84 4.0 7.0 0.00 0.01 0.00 47 1029.9
20180217160148 34 82 0.0 6.0 0.00 0.01 0.00 45 1029.8
20180217155147 34 110 5.0 9.0 0.00 0.01 0.00 47 1029.9
20180217154148 33 62 2.0 10.0 0.00 0.01 0.00 51 1029.7
20180217153147 33 116 7.0 10.0 0.00 0.01 0.00 45 1029.7
20180217152147 33 113 6.0 10.0 0.00 0.01 0.00 46 1029.8
20180217151147 33 75 6.0 10.0 0.00 0.01 0.00 46 1029.8
20180217150147 33 78 5.0 12.0 0.00 0.01 0.00 47 1029.7
20180217145147 33 108 0.0 12.0 0.00 0.01 0.00 48 1029.5
20180217144148 33 54 2.0 7.0 0.00 0.01 0.00 49 1029.9
20180217143147 33 347 2.0 8.0 0.00 0.01 0.00 50 1029.8
20180217142147 32 344 6.0 10.0 0.00 0.01 0.00 51 1029.7
20180217141147 32 339 5.0 10.0 0.00 0.01 0.00 52 1030.0
20180217140147 32 12 4.0 10.0 0.00 0.01 0.00 55 1029.7
20180217135147 31 48 4.0 10.0 0.00 0.01 0.00 55 1029.7
20180217134147 31 48 2.0 9.0 0.00 0.01 0.00 56 1029.9
20180217133147 31 84 2.0 9.0 0.00 0.01 0.00 56 1029.8
20180217132147 31 57 2.0 7.0 0.00 0.01 0.00 56 1029.8
20180217131147 31 12 0.0 5.0 0.00 0.01 0.00 58 1029.8
20180217130147 30 9 1.0 7.0 0.00 0.01 0.00 58 1030.0
20180217125147 30 1 0.0 4.0 0.00 0.01 0.00 59 1029.9
20180217124147 29 4 0.0 0.0 0.00 0.01 0.00 61 1029.5
20180217123147 29 6 0.0 4.0 0.00 0.01 0.00 63 1029.2
20180217122147 29 354 0.0 4.0 0.00 0.01 0.00 63 1029.0
20180217121148 29 351 0.0 7.0 0.00 0.01 0.00 63 1028.8
20180217120147 29 341 6.0 6.0 0.00 0.02 0.00 63 1028.7
20180217115147 29 359 5.0 12.0 0.00 0.02 0.00 61 1027.9
20180217114147 29 336 5.0 9.0 0.00 0.02 0.00 62 1028.1
20180217113148 30 360 5.0 11.0 0.00 0.03 0.00 60 1027.5
20180217112147 30 12 5.0 10.0 0.00 0.03 0.00 62 1027.5
20180217111147 30 311 4.0 11.0 0.00 0.04 0.00 59 1027.3
20180217110147 30 353 1.0 9.0 0.00 0.06 0.00 61 1027.2
20180217105147 30 354 7.0 9.0 0.00 0.13 0.00 59 1027.2
20180217104147 30 360 5.0 11.0 0.00 0.18 0.00 61 1026.7
20180217103147 31 351 4.0 12.0 0.00 0.20 0.00 59 1026.5
20180217102147 31 336 7.0 14.0 0.00 0.21 0.00 59 1026.2
20180217101147 31 4 7.0 11.0 0.00 0.22 0.00 59 1025.9
20180217100147 31 321 7.0 12.0 0.00 0.22 0.00 58 1025.9
20180217095147 31 14 10.0 16.0 0.00 0.23 0.00 58 1025.5
20180217094147 31 339 5.0 12.0 0.00 0.24 0.00 59 1025.4
20180217093147 31 358 9.0 14.0 0.00 0.24 0.00 61 1025.2
20180217092147 31 318 7.0 15.0 0.00 0.24 0.00 60 1024.8
20180217091147 32 318 9.0 15.0 0.00 0.24 0.00 63 1024.3
20180217090147 32 294 6.0 16.0 0.00 0.24 0.00 63 1024.3
20180217085147 32 345 8.0 15.0 0.00 0.25 0.00 65 1024.0
20180217084146 32 331 7.0 12.0 0.00 0.25 0.00 68 1023.5
20180217083146 32 12 4.0 10.0 0.00 0.25 0.00 69 1023.2
20180217082147 32 343 5.0 11.0 0.00 0.26 0.00 68 1023.0
20180217081147 33 345 4.0 11.0 0.00 0.26 0.00 68 1022.7
20180217080147 33 324 6.0 10.0 0.00 0.26 0.00 68 1022.6
20180217075147 33 331 5.0 13.0 0.00 0.26 0.00 67 1022.6
20180217074146 33 358 9.0 11.0 0.00 0.27 0.00 67 1022.4
20180217073147 34 343 3.0 13.0 0.00 0.27 0.00 66 1022.1
20180217072146 34 352 9.0 11.0 0.00 0.27 0.00 65 1021.9
20180217071147 34 314 5.0 13.0 0.00 0.27 0.00 63 1021.7
20180217070146 34 308 3.0 11.0 0.00 0.27 0.00 62 1021.3
20180217065146 35 345 7.0 9.0 0.00 0.27 0.00 63 1021.0
20180217064146 35 339 9.0 14.0 0.00 0.27 0.00 62 1020.8
20180217063146 35 339 8.0 13.0 0.00 0.27 0.00 60 1020.6
20180217062147 36 329 7.0 12.0 0.00 0.27 0.00 61 1020.3
20180217061146 36 339 3.0 14.0 0.00 0.27 0.00 61 1019.9
20180217060146 36 333 6.0 13.0 0.00 0.27 0.00 60 1019.7
20180217055147 37 324 13.0 14.0 0.00 0.27 0.00 59 1019.6
20180217054147 37 329 10.0 20.0 0.00 0.27 0.00 58 1019.3
20180217053146 37 3 9.0 22.0 0.00 0.27 0.00 60 1018.9
20180217052146 38 315 22.0 22.0 0.00 0.27 0.00 60 1018.9
20180217051147 38 314 6.0 15.0 0.00 0.27 0.00 61 1018.6
20180217050146 38 314 7.0 20.0 0.00 0.27 0.00 60 1018.2
20180217045147 39 326 14.0 14.0 0.00 0.27 0.27 61 1017.9
20180217044147 39 343 14.0 17.0 0.00 0.27 0.27 60 1017.3
20180217043147 39 316 9.0 18.0 0.00 0.27 0.27 61 1017.1
20180217042146 40 341 3.0 18.0 0.00 0.27 0.27 60 1016.7
20180217041148 40 348 15.0 21.0 0.00 0.27 0.27 59 1016.3
20180217040147 40 303 6.0 17.0 0.00 0.27 0.27 59 1016.1
20180217035146 40 340 13.0 15.0 0.00 0.27 0.27 61 1015.7
20180217034147 41 335 12.0 22.0 0.00 0.27 0.27 60 1015.2
20180217033147 41 342 9.0 27.0 0.00 0.27 0.27 59 1015.0
20180217032147 41 325 6.0 17.0 0.00 0.27 0.27 60 1014.6
20180217031146 42 338 6.0 15.0 0.00 0.27 0.27 62 1014.1
20180217030146 42 317 11.0 17.0 0.00 0.27 0.27 61 1013.7
20180217025147 43 329 1.0 17.0 0.00 0.27 0.27 60 1013.3
20180217024148 43 326 5.0 16.0 0.00 0.27 0.27 61 1012.9
20180217023146 43 296 5.0 17.0 0.00 0.27 0.27 63 1012.6
20180217022147 44 318 9.0 13.0 0.00 0.27 0.27 64 1012.2
20180217021147 44 287 9.0 16.0 0.00 0.27 0.27 64 1012.0
20180217020146 44 320 9.0 21.0 0.00 0.27 0.27 65 1011.6
20180217015146 44 335 21.0 21.0 0.00 0.27 0.27 64 1011.1
20180217014147 45 322 13.0 20.0 0.00 0.27 0.27 64 1010.8
20180217013146 45 329 1.0 20.0 0.00 0.27 0.27 64 1010.5
20180217012147 45 337 5.0 18.0 0.00 0.27 0.27 64 1010.3
20180217011147 46 310 4.0 17.0 0.00 0.27 0.27 64 1009.9
20180217010146 46 327 4.0 16.0 0.00 0.27 0.27 64 1009.3
20180217005146 46 314 7.0 16.0 0.00 0.27 0.27 65 1009.2
20180217004147 46 316 12.0 15.0 0.00 0.27 0.27 65 1008.7
20180217003146 46 306 11.0 16.0 0.00 0.27 0.27 66 1008.6
20180217002146 46 331 10.0 17.0 0.00 0.27 0.27 66 1008.1
20180217001146 47 339 3.0 18.0 0.00 0.27 0.27 65 1007.8
20180217000146 47 330 8.0 21.0 0.00 0.27 0.27 65 1007.2
20180216235146 47 284 5.0 19.0 0.00 0.27 0.27 66 1007.2
20180216234147 47 297 3.0 20.0 0.00 0.27 0.27 68 1006.8